Temp
18 19 19 18 18 20 20 20 20 20 20 20 19 19 18 18 18 18 17 17 17 17 17 17 17 17 17 17 17 17 16 16 16 16 16 16 16 16 15 15 15 15 15 15 15 15 15 15 15 14 14 14 14 14 14 14 14 14 14 14 14 13 13 13 12 11 12 13 13 13 13 13 13 13 13 13 13 13 14 14 14 14 14 14 15
18 19 19 18 19 20 20 20 20 20 20 20 19 19 19 19 18 18 18 17 17 18 18 18 18 17 17 17 17 17 17 16 16 16 16 16 16 16 16 16 15 15 15 15 15 15 15 15 15 14 14 14 14 14 14 14 14 14 14 14 14 13 13 12 12 11 12 13 13 13 12 12 12 12 12 12 13 13 13 14 14 14 14 14 14
19 19 19 19 20 20 20 19 19 20 20 20 20 19 19 19 18 18 18 18 18 18 18 18 17 17 17 17 17 17 17 16 16 16 16 16 16 16 16 16 16 15 15 15 15 15 15 15 15 14 14 14 14 14 14 14 14 13 13 13 13 13 13 12 12 11 11 11 12 12 12 12 12 12 12 12 12 13 13 13 13 13 13 13 13
18 18 18 19 20 20 20 20 19 19 19 19 19 19 19 19 19 18 18 18 17 17 18 18 17 17 17 17 17 17 17 16 16 16 16 16 16 16 16 16 16 16 16 15 15 15 15 15 15 15 14 14 14 14 14 14 13 13 13 13 13 13 13 12 12 11 11 10 11 11 11 11 11 11 11 12 12 12 12 12 13 13 13 13 13
16 15 15 17 18 19 19 18 18 18 16 15 15 16 17 18 19 18 18 18 18 17 17 17 17 17 17 17 17 16 16 16 16 16 16 16 16 16 16 16 16 16 16 16 15 15 15 15 15 15 14 14 14 14 14 13 13 13 13 13 13 12 12 12 11 11 11 10 10 11 11 11 11 11 11 11 11 11 11 12 12 12 12 13 13
15 15 14 14 15 16 16 16 16 16 16 15 14 14 14 15 16 16 17 17 17 17 17 17 17 17 17 17 16 16 16 16 16 16 16 16 16 16 16 16 16 16 16 16 16 15 15 15 15 15 14 14 14 14 14 13 13 13 13 13 12 12 12 12 11 11 11 10 10 10 10 10 10 10 10 10 9 10 10 11 12 11 11 12 12
16 16 15 15 14 14 15 14 14 14 15 16 16 16 15 15 14 14 15 15 15 15 16 16 16 16 16 16 16 16 16 16 16 16 15 15 15 16 16 16 16 16 16 16 16 15 15 15 15 15 14 14 14 14 13 13 13 13 13 12 12 12 12 11 11 11 10 10 9 9 9 9 9 9 9 9 9 9 8 8 9 10 9 9 10
16 15 16 15 15 14 13 14 14 14 14 15 15 15 15 15 15 14 14 14 14 15 15 15 15 16 16 16 16 16 16 16 16 16 15 15 15 15 15 15 15 16 16 16 16 15 15 15 15 14 14 14 14 14 13 13 13 13 12 12 12 12 12 11 10 10 10 9 9 8 8 8 8 8 8 8 8 8 8 7 7 7 8 8 8
15 15 16 15 14 14 13 14 14 14 14 15 15 15 14 15 15 15 15 14 14 14 15 15 15 15 16 16 16 16 17 17 17 16 16 15 15 15 15 15 15 15 16 15 15 15 15 15 15 14 14 14 14 14 13 13 13 13 12 12 12 11 11 10 10 9 9 9 8 8 8 7 7 7 7 7 7 7 7 7 6 6 7 7 8
15 15 15 15 14 15 15 15 15 15 15 16 16 15 14 14 14 15 15 15 15 15 15 15 16 16 16 16 17 17 17 17 17 17 16 16 16 15 15 15 15 15 15 15 15 15 15 15 15 14 14 14 14 14 13 13 13 12 12 12 11 11 10 9 9 9 8 8 8 8 7 7 7 7 6 6 6 6 6 6 6 6 6 6 7
15 15 15 15 15 16 15 15 16 16 15 15 15 15 14 14 15 15 15 16 16 16 15 15 16 16 16 16 16 16 16 16 17 16 16 15 15 15 15 15 15 15 15 15 15 15 15 14 14 14 14 14 14 13 13 13 12 12 12 11 11 10 10 9 9 8 8 8 7 7 7 7 7 7 6 6 6 6 6 6 5 5 5 5 5
16 16 16 15 15 15 15 15 15 15 15 15 15 15 15 15 16 16 16 16 16 16 15 16 16 16 16 16 16 16 16 16 16 16 15 14 14 14 14 14 14 15 15 15 15 15 15 14 14 14 13 13 13 13 13 12 12 12 12 11 11 10 10 9 9 8 8 7 7 7 7 7 7 7 6 6 6 6 6 6 5 5 5 4 4
16 16 16 15 15 15 15 15 15 15 16 16 16 16 16 16 16 16 16 16 16 16 16 16 16 16 16 16 16 16 15 15 15 15 15 14 14 14 14 14 14 14 14 14 14 14 14 14 13 13 13 13 13 13 12 12 12 12 11 11 10 10 9 9 9 8 8 8 7 7 7 7 6 6 6 6 5 5 5 5 5 5 4 4 4
16 16 16 16 16 16 16 16 16 16 16 16 16 16 16 16 16 16 16 16 16 16 16 16 16 16 16 15 15 15 15 15 15 14 14 14 14 14 14 14 14 14 14 14 14 14 14 14 13 13 13 12 12 12 12 12 12 11 11 11 10 10 9 9 9 8 8 8 7 7 7 6 6 6 6 6 5 5 5 4 4 4 4 4 4
16 16 16 16 16 16 16 16 16 16 16 16 16 16 16 16 16 16 16 16 16 16 16 16 15 15 15 15 15 15 15 14 14 14 14 14 14 14 14 13 13 13 13 13 13 12 13 13 13 12 12 12 12 12 11 11 11 11 11 10 10 10 9 9 8 8 8 7 7 7 6 6 6 6 6 5 5 4 4 4 4 4 4 4 4
16 16 16 16 16 16 16 16 16 16 16 16 16 16 15 15 15 16 16 15 15 15 15 15 15 15 15 14 14 14 14 14 14 14 14 13 13 13 13 12 12 12 12 12 12 12 12 12 12 11 11 11 11 11 11 11 11 10 10 10 10 9 9 8 8 7 7 7 6 6 6 5 5 5 5 5 4 4 4 4 4 4 3 3 3
16 16 16 16 16 16 16 16 16 16 16 16 15 15 15 15 15 15 15 15 15 15 15 15 15 15 15 14 14 14 14 14 14 14 13 13 12 12 12 12 11 11 11 11 11 11 11 11 11 11 11 11 11 11 10 10 10 10 9 9 9 8 8 8 7 7 6 6 5 5 5 5 5 5 5 5 4 4 3 3 3 3 2 2 2
15 15 15 15 16 16 16 16 15 15 15 15 15 15 15 15 15 15 15 15 15 15 15 15 15 15 15 14 14 14 14 14 13 13 13 12 12 12 12 11 11 11 11 11 10 10 11 11 11 11 10 10 10 10 10 10 9 9 8 8 7 7 7 7 6 6 6 6 6 5 5 5 5 5 5 4 4 4 3 2 2 2 2 1 2
15 15 15 15 15 15 15 15 15 15 15 15 15 15 15 15 15 15 15 15 15 15 15 14 14 14 14 14 14 14 13 13 13 12 12 12 11 11 11 11 11 11 10 10 10 10 11 11 10 10 10 10 10 10 9 9 8 8 7 7 7 6 6 6 6 6 5 5 5 5 4 4 4 4 4 3 3 3 3 2 2 2 2 1 1
14 14 14 15 15 15 15 15 15 15 15 15 15 15 15 15 15 15 15 14 14 14 14 14 14 14 14 14 13 13 13 13 12 12 12 11 11 11 11 11 11 10 10 10 10 10 10 10 10 10 9 9 9 8 7 7 7 7 7 7 6 6 6 5 5 4 4 4 3 3 3 3 3 3 3 3 2 3 3 2 2 2 2 2 2
14 14 14 14 14 14 14 14 14 14 15 14 15 15 15 15 14 14 14 14 14 14 14 13 13 13 13 12 12 12 12 12 11 11 11 11 11 10 10 10 10 10 10 9 9 9 9 9 9 8 8 7 7 7 7 7 7 7 6 6 6 5 5 4 4 3 3 3 3 3 3 3 3 3 3 2 2 3 3 3 2 2 2 2 2
14 14 14 14 14 14 14 14 14 14 14 14 14 14 14 14 14 14 14 14 14 13 13 13 13 12 12 11 11 11 10 10 10 10 10 10 10 10 10 10 9 9 9 9 8 8 8 8 8 7 7 7 7 6 7 7 6 6 6 5 5 4 4 3 3 3 3 3 3 2 2 2 2 2 2 2 2 2 2 2 2 2 2 2 2
14 14 14 14 14 14 14 14 14 14 14 14 14 14 14 14 14 14 14 14 13 13 13 12 12 11 11 10 10 10 10 9 9 9 9 9 9 9 9 9 9 9 9 8 8 7 7 7 7 7 7 6 6 6 6 6 6 5 5 4 4 3 3 3 3 3 3 2 2 2 2 2 2 2 2 2 2 2 2 2 2 2 2 2 2
14 14 13 13 13 13 14 14 14 14 14 13 13 13 13 13 13 14 14 13 13 13 12 12 11 10 10 10 10 10 9 9 8 9 8 8 8 8 8 8 8 8 8 7 7 6 6 6 6 6 5 5 5 5 5 5 5 4 4 3 3 3 3 3 3 2 2 2 2 2 2 2 2 2 2 2 2 2 2 2 2 2 2 2 2
13 13 13 13 13 13 13 13 13 13 13 13 13 13 13 13 13 13 13 13 13 12 12 11 10 10 10 10 10 9 8 8 8 8 8 8 8 8 7 7 7 7 7 7 6 5 5 5 5 5 5 5 5 5 5 4 4 4 4 3 3 3 3 2 2 2 2 2 2 1 1 1 1 1 1 1 1 1 1 1 1 1 1 1 1
13 13 13 13 13 13 13 13 13 13 13 13 13 13 13 13 13 12 12 12 12 12 12 10 10 10 10 10 9 9 8 8 7 7 7 7 7 7 7 6 6 6 6 6 5 4 4 5 5 5 5 4 4 4 4 4 4 4 3 3 3 2 2 2 2 2 1 1 1 1 1 1 1 1 1 1 1 1 1 1 1 1 1 1 1
12 12 12 13 13 13 13 13 13 13 13 13 13 13 13 13 12 12 12 11 11 11 9 8 8 8 9 9 9 8 8 7 7 7 7 7 7 6 6 6 6 6 5 5 5 5 5 5 4 4 4 4 4 4 3 3 3 3 3 2 2 2 2 1 1 1 1 1 0 0 0 0 0 0 0 0 0 0 0 0 0 0 0 0 -0
10 11 11 12 12 12 12 12 12 12 13 13 12 12 12 12 12 12 12 12 11 10 9 8 8 9 9 9 8 7 7 7 7 7 7 7 6 6 6 5 5 5 5 5 5 5 4 4 4 4 3 3 3 3 3 2 2 2 2 2 2 1 1 1 1 1 1 0 -0 -0 -1 -1 -1 -1 -1 -1 -0 -0 -0 -0 -1 -1 -0 -0 -1
10 10 10 11 11 11 12 12 12 12 12 12 12 11 11 12 12 12 12 12 11 11 10 10 10 10 9 9 8 7 6 6 6 7 6 6 6 6 6 5 5 5 5 5 4 4 4 3 3 3 3 3 2 2 2 2 2 2 1 1 1 1 1 0 0 0 0 -0 -1 -1 -2 -2 -2 -2 -1 -1 -1 -1 -1 -1 -1 -1 -1 -1 -1
9 9 10 10 10 11 11 11 12 12 11 11 10 10 10 11 11 11 11 11 11 11 11 11 10 10 9 9 8 8 7 7 7 6 6 6 6 6 5 5 5 4 4 4 4 3 3 3 3 2 2 2 2 2 1 1 1 1 1 1 1 0 -0 -0 -0 -0 -1 -1 -2 -2 -2 -2 -2 -2 -2 -2 -1 -1 -1 -1 -1 -1 -1 -1 -1
9 9 9 9 10 10 10 11 11 11 11 10 10 10 9 9 10 10 10 10 10 10 10 10 10 10 9 8 8 7 7 7 6 6 6 6 5 5 5 4 4 4 4 4 3 3 3 2 2 2 2 1 1 1 1 1 1 0 0 -0 -0 -1 -1 -1 -1 -1 -1 -2 -2 -3 -3 -2 -2 -2 -2 -2 -2 -2 -2 -1 -1 -1 -1 -1 -1
7 8 8 8 9 9 10 10 10 10 10 9 9 9 9 8 8 8 9 9 9 9 9 9 9 9 8 8 8 7 6 6 6 6 5 5 5 5 4 4 4 3 3 3 3 2 2 2 2 1 1 1 1 1 0 0 -0 -0 -1 -1 -1 -1 -1 -1 -2 -2 -2 -3 -3 -3 -3 -2 -2 -2 -2 -2 -2 -2 -2 -2 -1 -1 -1 -1 -1
7 7 7 8 8 9 9 10 10 9 9 9 9 9 9 8 7 7 7 7 8 8 8 8 8 8 7 7 8 7 6 6 5 5 5 5 5 4 4 4 3 3 3 3 2 2 2 1 1 1 1 1 0 0 -0 -0 -1 -1 -1 -1 -2 -2 -2 -2 -2 -2 -2 -3 -3 -3 -3 -3 -2 -2 -2 -2 -2 -2 -2 -2 -2 -2 -2 -1 -1
6 6 7 7 8 8 8 9 9 9 9 9 9 9 9 9 8 7 6 6 6 6 6 6 7 7 7 6 6 6 6 5 5 5 5 4 4 4 4 3 3 3 3 2 2 2 1 1 1 1 0 0 -0 -0 -1 -1 -1 -1 -1 -1 -1 -1 -1 -1 -2 -2 -3 -3 -3 -3 -3 -3 -3 -2 -2 -2 -2 -2 -2 -2 -2 -2 -2 -2 -2
5 5 6 6 7 7 8 8 9 9 9 9 9 9 8 8 8 7 7 6 5 4 4 4 5 6 6 6 6 6 5 5 5 4 4 4 4 3 3 3 3 3 2 2 2 1 1 0 0 0 -0 -0 -1 -1 -1 -1 -1 -1 -1 -1 -1 -1 -2 -2 -2 -3 -3 -3 -3 -3 -3 -3 -3 -3 -2 -2 -2 -2 -2 -2 -2 -2 -2 -2 -2
3 4 5 5 6 6 7 8 8 8 8 9 8 8 8 7 7 7 6 6 5 4 3 3 4 4 5 5 5 5 5 5 4 4 4 3 3 3 3 3 3 2 2 1 1 1 0 0 -0 -0 -0 -1 -1 -1 -1 -1 -1 -1 -1 -1 -2 -2 -2 -3 -3 -3 -3 -3 -3 -3 -3 -3 -3 -3 -3 -3 -2 -2 -2 -2 -2 -2 -2 -2 -2
3 3 4 4 5 6 6 7 7 8 8 8 7 7 7 6 6 6 5 5 4 3 3 3 3 3 4 4 4 4 4 4 4 4 3 3 3 3 3 3 3 2 1 1 1 0 0 -0 -0 -0 -1 -1 -1 -0 -0 -0 -1 -1 -1 -1 -2 -2 -2 -3 -3 -3 -3 -3 -3 -3 -3 -3 -3 -3 -3 -3 -3 -2 -2 -2 -2 -2 -2 -2 -2
2 3 3 4 5 5 6 6 7 7 7 6 6 6 5 5 5 5 4 4 3 3 3 3 3 3 3 3 4 4 4 4 4 3 3 3 3 3 3 3 2 2 1 1 1 0 -0 -0 -0 -0 -1 -1 -0 -0 -0 -1 -1 -1 -1 -2 -2 -2 -3 -3 -3 -3 -3 -3 -3 -3 -3 -3 -3 -3 -3 -3 -3 -3 -2 -2 -2 -2 -2 -2 -2
3 3 3 3 4 5 6 6 6 6 5 5 5 4 4 3 3 3 3 2 2 2 2 3 3 3 4 4 4 4 4 4 3 3 3 3 3 3 3 2 2 2 1 1 0 -0 -0 -0 -0 -0 -0 -0 -0 -1 -1 -1 -1 -1 -2 -2 -2 -2 -3 -3 -3 -3 -3 -3 -3 -3 -3 -3 -3 -3 -3 -3 -3 -3 -2 -2 -2 -2 -2 -2 -2
3 3 3 3 4 5 5 5 5 5 5 4 4 3 3 3 2 2 2 2 2 3 3 3 4 4 4 4 4 4 4 4 3 3 3 3 3 2 2 2 2 1 1 0 -0 -0 -0 -0 -0 -0 -0 -0 -0 -1 -1 -1 -1 -1 -2 -2 -2 -3 -3 -3 -3 -3 -3 -3 -3 -3 -3 -2 -2 -2 -2 -2 -2 -2 -2 -2 -2 -2 -2 -2 -2
3 3 3 3 4 5 5 5 4 4 4 3 3 3 2 2 2 2 2 3 3 3 3 4 4 4 4 4 4 4 4 4 3 3 3 3 3 2 2 2 1 1 0 0 -0 -0 -0 -0 -0 -0 -0 -0 -1 -1 -1 -1 -1 -1 -2 -2 -2 -3 -3 -3 -3 -3 -3 -3 -3 -2 -2 -2 -2 -2 -2 -2 -2 -2 -2 -2 -2 -2 -2 -2 -2
3 3 3 3 4 4 4 3 3 2 2 2 2 2 2 2 2 3 3 3 3 3 3 4 4 4 4 4 4 4 4 3 3 3 3 2 2 2 1 1 1 1 0 -0 -0 -0 -0 0 0 0 -0 -0 -1 -1 -1 -1 -1 -1 -2 -2 -2 -3 -3 -3 -3 -3 -3 -3 -2 -2 -2 -2 -2 -2 -2 -2 -2 -2 -2 -2 -2 -2 -2 -1 -1
3 3 3 3 3 3 2 2 2 2 2 2 2 2 2 3 3 4 4 4 4 4 4 4 4 4 4 4 4 3 3 3 3 3 2 2 2 2 1 1 1 0 -0 -0 -1 -0 0 0 0 -0 -0 -0 -1 -1 -1 -1 -1 -1 -2 -2 -2 -2 -2 -3 -3 -2 -2 -2 -2 -2 -2 -2 -2 -2 -2 -2 -2 -2 -2 -2 -1 -1 -1 -1 -1
2 2 2 2 2 2 2 2 2 1 1 2 2 3 3 3 4 4 4 4 4 4 4 4 4 4 3 3 3 3 3 3 2 2 2 2 1 1 1 1 0 0 -0 -1 -1 -0 1 0 -0 -0 -0 -0 -1 -1 -1 -1 -1 -1 -2 -2 -2 -2 -2 -2 -2 -2 -2 -2 -2 -2 -2 -2 -2 -2 -2 -2 -2 -2 -2 -1 -1 -1 -1 -0 -0
1 1 1 1 1 1 1 1 1 1 2 2 2 3 3 4 4 4 5 5 4 4 4 4 4 3 3 3 3 3 2 2 2 2 2 2 1 1 0 0 0 -0 -1 -1 -1 -0 0 -0 -1 -0 -0 -1 -1 -1 -1 -1 -1 -1 -1 -1 -1 -1 -1 -1 -1 -1 -1 -2 -2 -2 -2 -2 -2 -2 -2 -2 -1 -1 -1 -1 -1 -1 -1 -0 -0
1 1 1 1 1 1 1 1 2 2 3 3 3 3 4 4 5 5 5 4 4 4 3 3 3 3 3 3 3 2 2 2 2 2 1 1 1 0 0 0 -0 -1 -1 -1 -1 -0 -0 -1 -1 -0 -1 -1 -1 -0 -1 -1 -1 -1 -0 -0 -0 -0 -0 -1 -1 -1 -1 -2 -2 -2 -2 -2 -1 -1 -1 -1 -1 -1 -1 -1 -1 -1 -1 -0 -0
3 3 2 2 2 2 3 3 3 4 4 4 4 4 4 4 5 4 4 4 3 3 3 3 3 3 3 2 2 2 2 2 2 1 1 1 0 0 0 -0 -1 -1 -1 -1 -1 -0 -0 -1 -1 -1 -1 -1 -1 -0 -1 -1 -1 -0 -0 -0 0 0 0 -0 -1 -1 -1 -1 -2 -2 -2 -2 -1 -1 -1 -1 -1 -1 -1 -1 -1 -1 -1 -0 -0
4 4 4 4 4 4 4 4 4 5 5 5 4 4 4 4 4 3 3 3 3 3 3 2 2 2 2 2 2 2 2 1 1 1 0 0 -0 -0 -0 -0 -1 -1 -1 -1 -1 -0 -0 -1 -1 -1 -1 -1 -0 -0 -1 -1 -0 -0 -0 0 0 0 0 -0 -0 -1 -1 -1 -1 -1 -1 -1 -1 -1 -1 -1 -1 -1 -1 -1 -1 -1 -0 -0 -0
4 4 4 4 4 4 4 4 4 4 4 4 3 3 3 3 2 2 2 2 2 2 2 2 2 2 1 1 1 1 1 1 0 -0 -0 -0 -1 -1 -1 -1 -1 -2 -1 -0 -0 -0 -1 -1 -1 -1 -1 -0 -0 -0 -1 -0 -0 -0 -0 0 1 1 0 0 -0 -0 -1 -1 -1 -1 -1 -1 -1 -1 -1 -1 -1 -1 -1 -1 -1 -1 -0 -0 -0
4 4 4 4 3 3 3 3 3 3 3 3 2 2 2 2 2 2 2 2 2 2 2 1 1 1 1 0 0 0 -0 -0 -1 -1 -1 -1 -2 -2 -1 -1 -2 -2 -1 -0 -0 -1 -1 -1 -1 -1 -0 -0 0 -0 -0 -0 0 -0 -0 0 0 1 0 0 -0 -0 -1 -1 -1 -1 -1 -1 -1 -1 -1 -1 -1 -1 -1 -1 -1 -1 -0 -0 -0
3 3 3 3 3 3 3 3 2 2 2 2 2 2 2 1 1 1 1 1 1 1 1 0 0 -0 -0 -0 -1 -1 -1 -1 -2 -2 -2 -2 -2 -2 -2 -2 -3 -2 -1 -1 -1 -1 -1 -1 -1 -1 -0 0 0 0 0 0 0 0 0 0 0 1 1 0 0 -0 -0 -1 -1 -1 -1 -1 -1 -1 -1 -1 -1 -1 -1 -1 -1 -1 -0 -0 -0
Height
785 787 790 793 794 794 794 795 797 800 802 803 806 808 811 812 814 815 815 815 814 814 815 816 817 819 820 822 823 825 826 827 828 829 830 831 833 833 834 835 835 836 836 837 837 838 838 838 839 839 839 839 839 839 839 839 839 839 839 839 839 840 839 839 839 836 834 835 835 834 833 831 830 829 827 825 824 823 823 823 822 821 821 820 820
782 785 788 790 791 790 791 793 795 797 799 800 802 805 808 810 812 813 814 814 813 813 813 815 816 817 819 820 822 823 824 825 827 828 829 830 831 833 833 834 835 835 836 837 837 838 838 838 838 839 839 839 839 839 839 840 840 840 840 840 840 840 840 839 839 837 835 834 833 833 832 831 830 829 828 826 824 823 821 821 820 820 820 819 819
783 785 787 788 788 788 789 791 793 794 795 797 799 801 804 807 809 811 812 812 813 813 813 814 815 816 817 819 821 822 823 824 825 826 827 828 830 831 832 833 834 835 835 836 837 837 838 838 838 838 839 839 839 839 840 840 840 840 840 840 840 840 840 840 839 839 837 834 833 832 831 831 830 829 828 827 826 824 822 820 820 819 818 818 817
786 788 789 788 787 788 789 791 792 794 795 797 798 800 802 805 807 808 810 811 812 812 813 814 815 816 817 818 819 821 822 822 823 824 825 826 827 829 830 831 832 833 834 835 835 836 837 837 838 838 839 839 839 839 840 840 840 840 840 840 840 840 840 840 839 839 838 836 834 833 832 831 830 829 828 826 825 824 823 821 820 818 817 817 816
787 789 791 791 791 791 791 793 795 796 798 799 801 802 803 804 805 807 808 809 810 812 813 814 814 815 816 817 818 819 820 821 822 822 823 824 825 827 828 830 831 832 832 833 834 835 835 836 837 837 838 838 839 839 839 839 839 840 840 840 840 840 840 839 839 839 838 837 835 833 832 831 829 829 828 826 824 823 822 821 820 818 817 816 816
785 787 792 795 795 794 794 797 799 797 797 797 801 806 808 808 809 809 809 810 811 812 813 813 814 815 816 817 818 818 819 820 820 820 821 822 823 825 826 828 829 830 831 832 832 833 833 834 835 836 836 837 838 838 839 839 839 839 839 840 840 840 839 839 838 838 837 837 835 834 832 831 830 828 828 826 825 822 820 818 818 818 817 815 815
784 785 788 793 797 798 798 799 800 798 798 798 801 805 809 812 815 815 813 812 813 813 815 816 816 816 816 816 817 818 818 819 819 820 820 821 822 823 824 826 827 828 829 829 830 831 832 833 833 834 835 835 836 837 837 838 838 838 839 839 839 839 839 838 838 837 837 836 835 834 833 832 831 830 828 827 825 824 821 819 817 816 816 816 815
785 786 786 789 795 800 802 800 799 799 800 802 805 808 809 811 814 816 816 815 815 816 818 820 819 819 818 817 817 817 818 818 819 819 820 820 821 821 822 824 825 826 827 827 828 829 830 830 831 832 833 834 835 835 836 836 837 837 838 838 838 838 838 838 837 837 836 835 835 834 833 832 831 830 828 827 825 823 823 822 820 818 816 816 816
787 791 791 791 794 800 803 802 801 802 802 803 807 811 812 811 811 811 812 815 817 819 820 821 819 819 819 818 817 817 817 818 818 818 818 819 819 820 820 822 823 824 824 825 826 826 827 828 829 830 831 832 833 833 834 835 835 836 836 837 837 838 837 837 837 836 836 835 834 834 832 831 831 830 828 827 827 826 825 824 822 819 817 815 814
787 791 793 794 795 798 801 802 803 804 804 802 804 807 810 810 809 809 809 811 813 815 817 818 816 815 816 817 817 817 816 817 817 817 817 817 818 818 818 819 820 821 822 822 823 824 825 826 827 828 829 830 831 832 832 833 834 834 835 835 836 836 836 836 836 836 836 835 834 834 832 831 831 830 829 828 828 827 825 824 821 819 817 814 811
787 789 790 792 794 795 797 799 801 803 804 802 803 806 808 809 808 809 809 809 810 811 813 814 813 813 814 814 815 815 815 815 815 815 816 816 817 817 817 817 817 818 818 819 820 822 823 825 825 826 827 828 829 830 831 832 832 833 833 833 833 834 834 835 835 835 835 835 834 834 833 831 830 830 829 828 827 826 824 824 822 820 818 816 813
786 787 788 790 792 793 795 797 799 802 802 802 804 805 806 807 806 806 806 807 809 810 811 811 811 812 812 812 813 813 813 814 813 813 814 814 815 815 815 815 815 815 816 816 818 820 822 823 824 825 826 827 828 829 830 830 831 831 831 832 832 832 832 833 833 833 833 833 832 832 832 831 829 828 828 827 825 824 823 822 822 820 819 818 816
787 788 788 790 791 793 795 796 798 800 801 802 803 804 804 805 804 805 805 807 808 808 808 809 809 810 810 811 811 812 812 812 812 812 812 812 813 813 813 813 813 813 814 814 816 818 819 821 822 823 825 826 827 828 829 829 829 829 830 830 830 830 830 830 831 831 831 831 831 830 830 829 828 827 827 826 825 823 822 820 820 819 817 816 815
789 789 790 791 792 793 794 795 797 798 799 800 801 802 803 803 804 804 805 806 806 806 807 807 808 808 809 810 811 811 811 811 811 811 811 810 810 810 810 810 810 811 812 812 813 815 817 819 820 822 823 825 826 827 828 828 828 828 829 829 829 829 829 829 829 829 830 829 829 828 828 828 827 826 825 825 824 823 821 820 818 817 815 813 812
790 790 791 791 792 793 794 795 796 797 798 799 800 800 801 802 803 804 804 805 805 806 806 807 807 808 809 810 810 810 811 811 811 810 810 809 809 809 809 809 809 810 811 812 813 815 817 819 820 821 823 824 826 826 827 827 827 827 828 828 828 828 828 828 828 828 828 828 827 827 827 826 825 824 824 823 822 822 821 819 818 816 813 811 809
791 791 791 791 792 793 794 795 795 796 797 798 798 799 800 801 802 803 803 804 805 806 806 807 807 808 808 809 809 810 810 810 810 809 809 809 808 808 808 809 809 810 811 812 814 815 817 819 820 821 822 823 824 825 825 825 825 826 826 827 827 827 827 826 826 826 827 826 826 825 825 825 824 823 822 821 820 820 818 817 816 815 812 809 806
791 791 791 792 792 793 793 794 795 796 796 797 798 799 800 801 801 802 803 803 804 805 806 806 807 807 808 808 809 809 809 809 809 809 808 808 808 808 808 809 809 810 811 812 814 815 817 818 819 820 821 822 823 823 823 824 824 824 825 825 826 826 825 824 824 825 825 825 825 824 824 823 822 821 820 820 818 817 816 814 813 813 811 808 805
791 791 791 792 792 792 793 793 794 795 796 797 798 799 800 801 801 802 802 803 804 804 805 805 806 806 807 807 808 808 808 809 809 808 808 808 808 808 809 809 810 811 812 813 814 815 816 818 819 819 820 820 821 821 822 822 822 823 824 824 824 824 823 823 823 823 823 823 823 823 822 822 821 819 818 817 816 816 814 812 811 811 809 807 804
792 792 792 792 792 792 793 793 794 795 796 797 798 799 800 800 801 802 802 802 803 804 804 805 805 806 806 806 807 807 807 808 808 808 808 809 809 809 810 810 810 811 812 813 814 815 816 817 818 818 819 819 820 820 821 821 821 822 823 823 823 822 821 821 820 820 820 820 820 820 819 819 818 817 816 815 814 814 813 811 810 809 807 805 804
793 793 793 793 793 793 793 794 794 794 795 796 797 798 799 799 800 801 801 802 802 803 804 804 805 805 806 806 806 806 806 807 807 808 808 809 809 810 810 811 811 812 812 813 813 814 815 816 816 817 818 818 819 819 820 820 821 821 821 821 820 820 819 819 819 818 818 818 818 817 817 817 816 815 814 813 812 812 811 810 809 808 805 803 802
793 793 793 793 793 794 794 794 795 795 796 796 796 797 798 798 799 800 800 801 801 802 803 804 805 805 805 805 806 806 806 807 807 808 808 809 809 810 810 811 811 812 812 813 813 814 814 815 816 816 817 818 818 819 819 819 819 819 819 818 818 817 817 817 817 817 816 816 816 815 815 814 814 813 812 811 810 809 808 808 806 805 804 802 800
792 792 792 792 793 793 794 795 795 795 795 795 795 796 797 797 799 799 799 799 800 801 802 803 804 805 805 805 806 806 807 807 808 808 809 809 810 810 810 811 811 812 812 813 813 813 814 815 815 816 817 817 817 818 818 818 818 817 817 816 816 816 816 816 816 815 815 815 814 814 813 812 811 810 809 808 807 806 806 805 804 803 801 800 798
791 791 791 792 792 792 793 793 794 794 794 795 795 796 796 797 798 799 799 799 799 800 801 802 803 804 804 805 806 806 807 808 809 809 810 810 810 810 811 811 812 812 812 812 813 813 814 815 815 816 816 816 816 816 816 816 816 816 815 815 815 815 815 815 815 814 814 814 813 812 811 810 809 807 806 805 804 804 803 801 800 800 798 797 796
789 789 789 790 791 791 792 792 793 793 793 794 794 795 796 797 798 798 798 798 798 799 799 800 801 802 803 804 805 806 807 808 809 810 810 810 810 810 811 811 811 812 812 812 813 813 814 815 815 815 815 815 815 815 815 815 815 815 815 815 814 814 814 814 814 813 813 812 811 810 809 808 807 805 804 803 802 801 800 798 797 796 795 793 792
787 786 786 787 788 789 789 790 791 791 791 792 793 794 795 796 796 797 797 797 797 797 798 799 800 801 802 803 804 805 807 808 809 810 810 810 811 811 811 811 811 812 812 812 813 813 814 814 815 815 815 814 814 814 814 814 814 814 814 814 814 813 813 813 813 812 811 810 809 808 807 806 804 803 801 800 799 798 797 795 794 793 792 790 789
783 783 783 784 785 785 785 786 787 788 789 790 791 792 793 794 795 795 796 796 796 796 796 797 797 798 800 801 802 804 805 807 808 809 810 810 811 811 811 812 812 812 812 813 813 814 814 814 814 814 814 814 813 813 813 813 813 813 813 813 813 813 813 812 812 811 810 808 807 806 804 803 802 800 799 797 796 795 793 792 790 789 788 787 785
781 781 781 781 782 782 783 784 785 786 787 788 789 790 792 793 793 794 794 794 795 795 796 796 797 798 799 800 801 803 804 806 807 808 809 810 810 811 811 812 812 812 813 813 814 814 814 814 813 813 813 813 813 813 813 813 813 813 813 812 812 812 811 811 810 809 808 806 805 803 801 800 798 797 796 794 792 791 790 789 787 785 785 783 781
780 779 779 779 779 780 781 782 783 784 785 786 787 788 789 790 791 791 792 792 793 793 794 796 797 798 799 799 800 802 803 804 806 808 809 809 810 810 811 812 812 813 813 813 813 813 813 813 813 813 813 813 813 813 813 813 813 812 812 812 811 811 810 809 808 807 806 804 802 800 798 797 795 794 792 791 789 788 787 786 784 782 781 780 778
779 778 777 777 777 778 778 779 780 781 782 783 784 785 786 788 788 789 789 789 790 791 792 794 795 796 796 797 799 800 801 803 805 807 808 809 809 810 811 812 812 812 812 812 813 813 813 813 813 813 813 813 813 813 812 812 812 811 811 811 810 809 808 807 806 805 803 802 800 798 796 794 792 791 789 787 785 784 783 782 780 779 778 776 774
776 776 776 775 775 775 775 776 777 778 779 780 782 783 784 785 786 786 787 788 789 790 791 792 793 794 795 796 797 799 800 802 805 806 808 808 809 810 811 812 812 812 812 812 812 813 813 813 813 813 813 813 813 812 812 811 811 810 810 809 808 807 806 805 804 803 801 800 798 796 794 792 790 788 786 784 782 781 779 778 776 775 774 772 770
772 772 772 773 773 773 773 773 774 774 776 777 779 780 782 783 784 785 786 786 788 789 790 791 792 793 794 795 797 799 801 803 804 806 807 808 809 810 811 812 812 812 812 812 812 813 813 813 813 813 813 813 812 812 811 811 810 809 808 808 807 806 805 804 803 801 799 797 795 793 791 789 787 785 783 781 778 777 775 774 773 771 770 768 767
769 769 769 770 770 771 771 771 771 772 773 774 776 778 779 781 782 784 785 786 787 788 789 790 791 793 794 795 796 799 801 803 804 806 806 807 808 810 811 811 812 812 812 812 813 813 813 813 813 813 813 813 812 812 811 811 810 809 808 807 806 805 804 802 800 798 796 794 792 790 788 786 784 782 779 778 775 773 772 770 769 767 766 764 763
765 766 766 767 767 768 768 769 769 770 771 772 774 775 777 779 780 782 784 785 786 787 788 789 790 792 794 795 796 798 800 803 804 806 807 807 808 809 811 812 812 812 813 813 813 814 814 814 814 814 813 813 812 812 811 811 810 809 808 807 805 803 802 800 798 795 793 791 790 787 785 783 781 778 776 774 772 770 768 766 765 764 762 761 759
761 762 762 763 764 765 765 766 766 768 769 771 772 774 775 777 778 780 782 784 785 787 788 789 790 792 793 796 797 798 800 803 805 806 807 808 809 810 811 812 812 813 813 813 814 814 814 814 814 814 814 813 812 812 811 811 810 809 807 806 804 802 800 798 795 793 791 789 787 785 782 780 778 775 773 771 769 767 765 763 761 760 758 757 755
757 757 758 759 760 761 762 763 763 764 766 768 770 771 773 774 776 778 780 782 784 786 787 789 791 792 793 796 797 799 801 803 805 806 807 808 809 810 811 812 813 813 814 814 814 815 815 815 815 814 814 813 813 812 812 811 809 808 806 804 802 801 798 796 794 791 789 787 784 782 779 777 774 772 770 767 765 763 761 759 758 756 754 753 752
751 752 753 755 756 758 759 760 760 762 763 765 767 769 770 772 774 776 778 780 782 785 787 789 791 793 795 797 798 799 801 803 804 806 807 808 809 810 810 811 813 813 814 814 815 815 815 815 814 814 813 813 813 812 811 810 809 807 806 804 802 800 797 795 792 789 787 784 781 778 776 773 771 768 766 764 762 759 757 755 754 752 751 749 748
745 746 748 750 752 754 756 758 759 760 761 763 764 766 768 771 773 775 778 780 782 784 786 788 790 793 796 797 799 800 802 803 805 806 807 808 809 810 811 812 812 813 814 814 815 815 815 814 814 814 813 813 812 811 810 809 808 807 806 804 801 799 796 793 790 787 784 781 778 775 773 770 767 765 763 760 758 756 754 752 750 748 747 746 744
738 740 742 745 747 749 752 754 756 757 759 760 762 764 767 769 772 774 777 779 781 783 785 788 790 792 795 797 799 800 802 803 805 806 807 808 809 810 811 812 813 813 814 815 815 815 815 814 814 814 813 812 811 811 810 810 809 807 805 802 799 796 793 790 787 784 781 778 775 772 770 767 764 762 760 757 755 752 750 749 747 745 743 741 740
731 733 736 740 743 745 748 750 752 755 757 759 761 763 766 769 772 774 776 779 781 783 785 788 791 793 794 796 799 800 802 803 805 806 807 808 809 810 811 812 813 814 814 814 815 815 815 815 814 813 812 812 811 811 810 809 808 806 803 800 797 793 790 788 785 781 779 776 773 770 767 764 762 759 757 754 752 749 747 745 743 742 740 738 736
725 728 732 735 739 742 745 747 749 752 754 757 759 762 765 768 770 773 776 779 781 784 787 789 791 792 794 796 798 800 801 803 804 806 807 808 809 810 811 812 813 814 814 814 815 815 814 814 813 812 812 811 811 811 810 808 806 804 801 798 795 791 788 785 782 779 777 774 771 768 765 762 759 756 754 751 749 747 744 742 740 738 736 734 732
721 724 728 733 737 740 743 745 748 750 752 755 758 761 764 768 771 773 777 779 782 785 787 789 791 792 795 797 799 800 801 802 804 805 806 807 809 810 811 812 813 813 814 814 814 814 814 813 812 812 811 811 811 810 809 807 804 801 798 795 792 789 786 783 780 778 775 772 768 765 762 759 757 754 751 748 746 744 741 739 737 735 733 731 729
720 724 728 732 736 739 742 745 748 751 753 756 758 762 765 768 771 774 777 781 783 786 787 789 792 794 796 798 799 801 802 803 804 805 806 807 809 810 811 812 812 813 813 813 813 813 812 811 811 812 812 811 811 809 807 805 802 799 796 793 790 787 784 781 778 776 773 770 767 764 760 757 755 752 749 746 744 741 739 737 734 732 730 728 727
723 726 730 733 737 740 743 746 749 752 755 757 759 763 766 769 772 775 779 782 784 786 787 790 792 794 796 798 799 800 802 803 804 805 806 807 808 810 811 811 812 812 812 812 812 812 810 810 811 812 812 811 810 808 806 804 801 798 795 791 788 785 782 779 777 774 771 768 765 762 759 756 753 750 747 744 742 739 737 734 732 730 728 726 725
727 730 733 736 739 742 745 748 751 755 758 760 762 766 769 772 775 778 780 782 784 786 788 790 792 794 796 797 798 800 801 803 804 805 806 807 808 810 810 811 811 811 811 812 811 810 809 810 811 812 811 810 809 807 805 803 800 797 793 790 787 784 781 778 775 773 770 767 763 760 757 754 751 749 746 743 740 738 735 733 730 728 726 725 723
732 735 738 740 743 746 749 752 755 758 761 764 767 770 772 774 777 779 781 783 785 787 789 791 793 794 796 797 798 800 801 803 804 806 807 807 809 809 810 810 811 811 811 811 810 809 809 810 811 811 810 809 807 805 803 801 798 795 792 789 786 783 780 777 775 772 770 766 763 760 757 754 751 748 745 742 740 737 734 732 729 727 725 724 722
740 741 743 746 749 751 754 757 760 762 765 768 770 772 774 776 778 780 782 784 786 788 790 791 793 795 796 797 799 801 802 803 805 806 807 808 808 809 809 810 810 810 811 810 809 808 809 810 811 810 809 808 805 803 802 799 797 794 791 788 786 783 780 777 775 772 769 766 763 760 756 753 750 748 745 742 739 737 734 731 729 727 725 723 721
746 748 750 752 754 756 759 761 764 766 768 770 772 774 775 777 779 781 783 785 787 789 790 792 794 795 797 798 800 801 803 804 805 806 807 807 808 808 809 809 809 810 810 809 808 808 809 810 810 809 808 806 804 802 800 798 795 793 790 788 785 783 780 777 775 772 769 766 763 760 756 753 750 747 745 742 739 737 734 731 729 727 725 723 721
753 754 756 757 759 761 763 765 767 768 770 772 774 775 777 779 781 783 785 786 788 790 792 793 795 797 798 799 801 802 803 804 805 806 806 807 807 808 808 808 808 809 809 808 808 808 809 810 809 808 807 805 803 801 799 797 794 792 789 787 784 782 780 777 775 772 769 766 763 760 757 753 750 747 745 742 740 737 734 732 729 727 725 723 722
759 760 761 762 763 765 766 768 770 771 773 774 776 778 779 781 783 784 786 788 790 791 793 795 796 798 799 800 801 802 803 804 805 805 806 807 807 808 808 807 807 808 808 807 807 808 809 809 808 807 806 804 802 800 798 796 794 791 789 786 784 782 780 777 775 772 769 766 763 760 757 754 751 748 745 743 740 738 735 733 730 728 726 724 723
764 765 765 766 767 769 770 771 773 774 775 777 778 780 781 783 785 786 788 790 791 793 795 796 798 799 800 801 802 803 803 804 805 805 806 807 807 807 807 807 807 807 807 807 807 808 808 808 807 806 805 804 802 800 798 796 794 791 788 786 783 782 780 777 775 772 769 766 763 760 757 754 751 748 746 743 741 738 736 734 731 729 727 726 724
768 769 769 770 771 772 773 775 776 777 778 779 781 782 784 785 787 789 790 792 793 795 797 798 799 800 801 802 802 803 803 804 805 805 806 807 807 807 807 807 807 807 807 807 807 807 807 807 806 805 804 803 801 800 798 796 794 791 788 786 783 781 779 777 775 772 769 767 764 761 758 755 752 749 746 744 741 739 737 735 733 731 729 727 726
Wind_Speed
37 38 35 31 31 34 37 38 38 36 34 32 32 33 33 33 32 31 30 29 27 25 24 21 19 18 17 16 15 15 15 13 12 10 10 9 7 7 7 6 6 6 5 4 4 3 3 2 2 1 2 3 2 2 3 5 5 6 7 7 6 7 10 10 7 11 17 17 17 19 20 21 23 23 24 24 23 22 20 19 19 19 19 18 17
38 36 31 31 33 34 35 37 38 38 36 35 33 34 35 35 34 32 32 31 28 26 24 23 20 18 17 16 15 15 14 14 13 12 11 11 10 9 9 9 8 8 9 8 6 5 4 3 3 2 2 2 2 3 3 3 4 5 6 5 5 5 7 9 8 9 15 20 20 20 21 22 23 23 23 24 24 23 22 21 20 20 20 20 19
36 33 30 31 32 32 32 34 37 39 39 37 37 36 36 36 36 35 33 32 30 27 25 23 21 19 17 16 15 14 14 14 13 12 12 12 12 12 12 12 11 11 12 11 10 8 7 6 5 5 5 5 3 4 3 3 4 5 5 4 4 5 6 9 10 10 13 18 20 22 22 23 23 22 22 22 22 23 23 22 21 20 19 19 19
25 26 28 31 32 29 29 31 32 34 33 33 35 37 39 38 37 36 35 33 32 29 26 24 22 20 18 17 16 15 14 14 13 12 12 12 13 13 14 14 14 14 14 14 13 12 11 9 8 7 7 7 5 5 4 4 5 6 5 6 6 7 9 9 11 11 12 16 20 21 22 23 23 22 22 23 22 22 22 22 21 21 20 19 19
13 10 9 15 21 24 24 24 24 23 19 15 14 17 27 36 37 37 37 36 34 31 28 25 23 21 20 18 17 17 16 16 15 14 14 13 14 15 15 16 16 16 17 16 15 15 15 12 10 10 10 8 7 7 6 5 6 7 7 8 9 10 11 11 12 13 13 16 19 21 22 23 24 23 23 24 25 25 24 23 21 21 22 20 19
11 9 4 5 5 10 15 15 16 18 18 16 10 4 8 21 27 30 31 32 31 30 28 27 24 22 21 19 19 19 18 18 18 18 18 17 17 17 17 18 19 19 19 19 17 17 17 15 13 12 12 10 8 8 8 8 8 8 8 9 10 12 13 14 15 15 15 16 18 21 23 23 23 24 23 24 24 24 26 27 24 23 25 24 23
12 16 13 9 9 9 12 13 13 14 16 19 17 12 10 12 15 19 20 21 22 21 20 21 22 22 21 20 19 19 18 18 18 18 19 20 20 20 20 21 22 22 22 22 20 18 18 17 14 15 15 12 11 10 10 10 9 9 10 10 11 13 15 17 16 16 16 17 17 19 21 21 21 23 23 24 22 22 25 28 29 29 30 29 28
13 15 16 15 13 13 13 14 16 17 17 17 15 13 14 14 14 15 14 12 12 13 13 14 16 17 19 20 20 19 18 17 17 17 17 18 19 21 22 23 26 26 25 25 23 21 20 19 17 17 17 14 13 12 12 11 10 9 9 10 11 14 16 16 15 14 15 16 16 17 19 21 22 25 26 26 25 24 25 26 26 29 31 31 29
13 13 13 16 17 15 13 13 14 13 15 14 10 9 12 15 17 17 15 11 8 9 11 14 15 16 19 20 20 19 18 18 18 17 16 17 19 21 22 23 26 29 29 28 26 23 22 21 19 19 18 16 14 13 12 12 11 9 9 10 11 12 13 12 11 11 13 15 16 18 20 21 23 25 26 26 24 24 25 25 26 27 30 32 30
19 19 17 16 17 14 12 11 7 6 9 13 16 17 18 19 19 19 18 15 13 15 19 21 21 21 21 21 21 21 20 19 17 17 18 20 22 23 24 23 25 29 32 30 28 26 24 22 21 20 19 17 15 14 13 12 11 10 10 10 10 10 9 8 7 8 10 12 14 16 18 20 22 23 24 25 25 24 25 25 26 27 28 29 29
20 20 17 16 16 16 17 17 15 15 15 16 18 19 19 17 15 14 14 13 15 19 21 21 22 21 20 18 18 18 18 17 17 19 20 21 22 23 24 24 25 28 32 33 31 27 25 23 22 22 20 18 15 14 12 11 10 10 10 11 10 9 8 6 6 6 8 9 11 13 14 18 22 23 23 25 26 26 26 25 24 24 23 20 21
16 16 15 16 17 16 16 18 19 18 16 16 16 15 14 12 10 10 10 10 13 16 17 16 16 16 15 15 15 15 15 16 18 20 20 20 20 21 22 25 27 28 30 32 29 26 25 25 23 22 20 17 15 13 12 11 11 12 12 12 11 10 8 8 8 8 8 9 11 13 14 16 20 22 22 24 25 26 27 26 24 23 21 18 18
14 15 16 18 18 18 19 20 20 18 15 14 13 12 10 8 7 7 7 8 10 12 14 14 12 12 12 13 13 12 13 14 15 16 17 16 16 17 19 22 25 27 29 30 28 26 26 26 23 21 18 16 14 13 12 12 13 13 14 13 11 10 9 10 10 10 10 11 13 15 16 16 18 20 21 21 22 24 25 26 25 24 23 22 23
10 12 16 17 17 19 21 21 20 17 15 14 13 11 9 8 7 6 5 5 5 5 6 7 7 7 8 8 7 7 8 10 10 12 13 14 14 15 15 17 20 24 26 28 29 27 26 25 23 20 18 15 14 12 12 13 13 14 15 13 12 11 11 11 11 11 12 13 14 16 17 16 17 19 20 18 18 19 21 23 24 25 26 27 28
6 9 13 14 14 17 21 20 19 17 15 12 10 9 7 5 5 4 3 2 2 2 2 2 2 3 5 7 7 7 7 7 8 11 12 11 11 10 11 12 16 18 20 21 23 23 23 22 19 16 13 13 12 12 12 12 13 14 15 14 13 13 12 11 11 11 12 12 14 15 16 16 17 17 18 17 16 16 18 21 23 26 29 31 31
6 8 10 9 11 16 19 17 15 13 10 8 7 6 5 4 3 3 3 3 2 3 3 4 5 4 5 7 8 7 6 7 9 11 12 10 7 6 7 10 12 13 13 13 15 17 16 15 12 11 10 11 11 11 10 10 11 13 15 15 15 13 11 11 11 11 12 13 13 14 15 16 16 17 17 18 20 21 23 25 26 27 27 27 28
10 10 10 9 11 14 15 14 12 9 7 6 7 6 4 3 3 3 3 3 3 4 5 6 7 7 7 8 9 8 8 8 9 10 10 8 5 3 5 8 9 9 9 10 11 12 12 9 8 8 10 11 11 10 9 10 12 14 15 15 14 12 11 11 11 11 12 12 13 14 16 17 19 21 23 24 26 27 27 26 25 25 23 20 20
3 7 7 8 11 14 15 12 11 9 7 8 8 7 6 5 4 4 4 4 4 4 6 7 8 9 9 9 9 9 8 7 6 6 6 4 3 3 6 9 10 11 11 11 10 10 10 10 9 9 9 9 9 9 10 10 11 12 11 11 11 10 10 11 12 13 14 16 17 19 21 22 24 26 26 26 25 24 23 23 23 22 21 18 18
4 3 3 1 5 12 14 12 11 11 10 11 10 9 7 7 6 5 5 4 5 6 7 8 8 10 10 10 9 9 8 7 6 4 4 3 4 5 7 9 11 10 10 10 10 10 11 11 10 10 9 9 9 9 9 9 9 8 8 9 9 10 11 13 15 16 18 19 19 20 20 20 20 20 20 18 17 16 17 19 20 22 22 21 20
4 4 5 4 2 4 6 8 10 11 12 13 12 10 9 8 8 7 7 6 6 7 8 7 8 11 11 10 10 10 9 8 7 6 6 6 7 7 7 9 9 9 9 9 10 10 11 10 10 9 8 8 7 7 6 6 6 7 8 9 11 11 13 14 14 15 15 16 16 17 17 17 17 17 16 15 15 15 16 18 18 21 23 23 22
9 8 5 3 1 2 1 1 4 6 7 8 9 10 10 11 10 10 9 8 7 7 7 6 8 11 12 11 11 10 9 9 8 8 8 7 8 8 7 8 9 9 9 8 8 8 8 7 7 6 5 5 4 3 3 4 6 8 9 10 10 10 11 12 12 13 14 15 16 17 18 18 18 18 18 17 16 16 19 19 19 20 23 24 24
12 7 4 4 3 3 2 1 2 3 2 1 3 5 8 11 12 11 10 8 6 5 6 6 8 11 12 11 10 10 9 8 8 8 8 7 7 7 7 8 9 9 9 8 7 7 7 6 6 5 4 3 2 4 6 7 9 9 9 8 8 9 9 10 11 13 14 15 17 18 18 19 19 19 19 19 18 18 21 22 21 21 23 24 25
13 11 9 9 8 6 5 3 3 2 2 3 4 5 5 7 9 11 11 10 8 6 6 7 10 12 12 11 10 9 9 8 7 7 7 7 7 6 7 7 8 8 9 8 6 6 7 7 6 4 3 3 5 6 8 8 7 6 6 6 7 7 8 9 11 12 14 16 17 19 20 20 21 21 21 21 21 20 21 22 23 23 24 24 25
14 13 11 10 9 8 8 8 8 9 9 8 7 7 8 8 10 12 14 13 11 9 9 10 12 13 12 11 10 9 9 9 7 7 6 6 7 6 7 7 7 8 8 7 6 6 6 6 4 3 3 5 6 7 7 6 5 5 5 6 6 7 8 10 11 13 15 17 18 20 21 22 22 22 22 22 22 22 22 23 23 23 24 25 26
15 14 13 12 12 11 10 10 11 11 10 10 9 8 9 10 10 11 13 15 15 13 13 13 15 15 14 13 12 11 11 10 10 9 8 7 7 6 6 6 6 7 7 5 4 4 4 2 2 3 5 6 6 6 5 4 5 5 5 5 6 8 10 12 14 15 16 18 19 21 22 23 23 24 24 24 24 24 24 25 24 23 24 25 26
18 19 18 17 17 16 14 13 12 12 11 12 12 11 11 11 10 10 11 14 16 17 17 19 19 18 17 15 14 13 13 13 13 12 10 8 7 7 7 7 7 6 6 4 3 2 1 1 2 3 3 3 3 3 3 3 4 4 5 6 8 10 12 14 15 16 18 19 21 23 24 25 26 27 27 27 26 26 26 25 25 24 24 24 26
12 13 12 13 14 16 16 15 15 15 15 15 15 15 14 13 12 11 11 14 17 18 18 17 17 17 16 15 15 15 15 15 15 14 12 10 10 9 9 8 6 5 4 3 1 2 2 2 1 1 2 2 3 4 5 5 5 6 7 9 11 12 14 15 16 18 20 22 24 26 27 28 28 28 28 28 28 28 28 27 26 25 25 25 25
10 9 7 8 10 12 13 12 14 17 19 18 18 17 16 14 14 13 13 15 18 19 18 16 15 16 17 17 17 17 16 16 15 14 13 13 12 11 9 6 4 3 2 1 1 1 1 1 3 3 3 4 5 6 7 7 7 9 10 11 13 14 16 17 19 21 23 26 27 28 28 28 28 28 28 28 29 29 28 27 26 26 26 25 23
14 12 10 8 9 11 12 12 12 15 19 19 17 16 15 15 15 15 14 15 17 19 18 17 18 18 18 19 19 19 19 17 15 14 14 13 11 10 7 5 3 2 1 0 1 3 4 4 4 5 6 8 9 10 10 10 10 12 13 15 17 18 19 20 21 23 25 26 27 27 27 27 27 27 27 27 27 27 27 27 27 26 25 23 22
17 16 15 12 11 10 12 13 14 15 18 18 16 15 14 14 15 15 15 16 17 18 16 15 16 18 19 19 19 18 18 18 17 16 15 13 10 8 6 4 2 2 2 3 4 5 5 6 7 9 10 11 11 11 12 13 14 16 17 18 19 19 20 22 24 25 26 26 26 25 25 25 25 25 24 25 25 26 26 26 26 25 24 22 21
17 18 17 16 15 13 12 13 16 17 18 18 17 16 14 13 14 15 16 17 17 17 16 14 14 16 18 18 17 15 16 18 19 16 14 11 8 6 5 4 4 5 4 4 5 6 7 8 9 10 10 11 12 12 13 15 16 17 19 19 19 20 21 24 26 26 26 26 25 24 24 23 23 24 24 25 25 25 25 25 25 24 23 23 22
19 19 18 17 16 15 14 14 15 17 18 19 19 18 16 14 13 12 13 14 14 13 14 13 13 14 17 17 17 18 19 19 17 14 12 10 9 8 8 7 7 7 5 3 5 7 8 9 9 10 10 11 12 13 14 15 17 18 19 19 20 21 23 25 26 26 25 25 24 24 24 24 24 25 25 25 25 25 25 24 23 23 23 23 23
23 22 21 19 16 15 15 15 16 16 18 20 21 20 19 18 16 13 11 11 11 11 11 12 13 15 17 17 18 21 21 19 15 13 12 12 11 11 11 10 9 7 4 4 6 7 7 7 8 9 9 11 12 13 14 16 18 19 19 19 20 23 25 26 27 27 26 25 24 25 25 25 25 25 25 25 25 25 24 24 24 23 22 22 22
25 25 24 23 21 18 17 19 20 20 20 22 23 23 22 21 20 18 16 14 13 12 13 14 15 17 18 19 20 22 21 17 15 14 14 14 13 12 11 10 8 6 4 4 5 5 6 6 7 7 9 10 12 14 16 18 19 19 20 21 23 25 26 27 26 26 26 25 25 26 26 26 26 26 25 25 24 24 24 23 23 22 22 21 21
27 27 26 25 24 22 20 20 23 25 25 26 27 26 25 23 21 21 21 20 19 18 18 18 19 19 21 22 22 21 19 17 15 15 15 14 12 10 8 7 6 4 3 3 4 5 4 5 6 8 9 11 13 15 17 18 19 20 21 22 24 26 27 27 27 26 26 26 26 26 26 26 26 26 26 25 24 23 23 23 22 22 22 22 22
28 28 28 28 27 25 22 20 21 25 27 29 29 28 26 24 23 23 23 24 25 24 23 23 23 23 23 23 21 19 18 17 17 16 14 12 10 9 8 7 6 5 5 4 4 3 3 5 6 8 10 12 14 15 16 17 17 18 20 22 25 27 28 28 27 27 27 27 27 27 27 27 27 26 25 25 24 24 24 23 23 23 23 23 22
29 28 28 28 29 28 26 22 20 23 27 29 29 27 26 25 25 26 26 27 28 29 29 28 28 27 24 23 21 20 19 18 17 15 14 12 10 9 7 7 6 6 5 4 3 2 3 5 7 9 11 12 13 13 14 14 16 19 22 25 27 29 29 28 27 27 27 27 27 28 27 27 27 26 25 24 24 24 23 23 23 23 23 24 23
29 29 28 27 27 28 28 25 23 24 27 28 28 27 27 27 27 28 29 30 31 32 31 29 29 28 26 24 22 20 20 19 17 16 13 11 10 9 7 6 6 5 4 3 2 3 4 6 7 9 10 10 10 11 12 15 18 22 25 28 30 30 29 28 28 28 28 27 28 28 27 27 27 26 25 24 24 24 24 23 23 23 23 23 22
28 29 29 28 27 27 27 26 25 26 27 27 27 27 27 28 29 30 30 30 29 29 29 28 28 27 26 24 22 21 21 20 18 16 13 10 9 9 7 6 5 4 3 2 2 2 4 6 8 8 8 8 9 11 14 18 21 25 27 29 30 30 30 29 28 29 28 28 28 28 27 27 27 26 25 24 24 23 24 23 23 22 22 22 22
27 27 28 28 27 26 25 26 27 29 29 29 29 30 30 30 30 30 30 29 29 28 27 27 27 26 25 23 23 22 21 20 17 14 11 11 11 9 7 6 5 4 3 3 3 3 4 6 7 7 7 9 10 13 17 20 24 27 28 29 29 29 29 28 28 28 28 28 28 28 28 28 28 27 25 24 24 23 23 23 23 23 22 23 23
23 24 26 27 27 26 25 26 28 29 30 30 30 31 31 30 29 29 29 29 29 27 26 25 25 25 23 22 21 19 17 16 15 13 13 13 12 10 8 7 5 4 4 4 3 2 4 5 6 7 8 9 12 15 19 23 25 27 28 29 28 28 28 28 27 28 28 28 28 28 29 29 28 26 26 25 25 24 23 23 23 23 22 23 23
18 21 23 25 26 25 25 25 25 27 28 29 29 29 30 29 30 31 30 28 27 26 24 23 23 22 21 20 18 16 13 14 15 16 15 14 12 10 9 7 5 4 4 3 2 2 3 5 5 6 8 10 14 18 22 24 25 26 27 28 27 27 27 27 27 27 28 28 29 29 29 28 27 26 26 26 25 24 23 22 22 22 21 22 22
19 21 23 24 25 25 25 25 25 25 26 27 28 30 30 31 31 30 29 27 26 25 24 22 21 20 19 17 15 12 12 15 17 17 15 13 12 11 9 7 5 4 3 2 1 2 3 4 4 5 8 11 16 20 22 22 23 25 26 26 25 26 26 26 26 27 28 28 29 29 28 28 27 27 27 26 25 24 23 22 21 21 20 20 20
26 25 25 24 24 25 26 26 26 26 26 27 29 30 30 30 28 27 26 25 24 23 22 21 20 19 18 15 13 13 15 19 18 16 14 13 12 11 8 5 3 3 3 2 1 2 3 3 3 5 8 12 17 19 19 20 23 25 24 24 24 24 24 25 25 26 26 28 29 28 27 27 27 26 26 26 25 25 24 22 21 20 19 18 17
31 30 29 29 28 28 28 28 28 28 28 28 28 28 28 28 26 25 23 22 21 20 20 19 18 17 16 15 16 18 20 20 17 14 14 13 11 9 7 4 2 4 5 4 1 2 2 2 3 6 10 15 18 18 17 21 24 24 23 23 23 23 23 24 24 24 24 26 27 27 26 26 25 25 26 25 24 24 23 22 21 19 17 16 15
31 31 30 29 28 27 26 26 26 26 26 26 26 25 25 25 24 21 19 18 18 18 19 19 18 18 18 19 20 21 20 17 15 13 12 11 9 7 5 1 2 5 7 5 1 0 2 1 4 7 12 16 18 17 18 22 24 23 22 22 21 20 21 22 22 21 23 25 25 25 24 24 24 24 24 24 23 22 22 21 20 17 16 15 13
31 30 29 28 27 27 27 26 25 25 24 23 22 22 22 22 20 18 17 17 18 19 20 20 21 21 21 21 20 19 17 15 13 12 10 9 6 4 2 2 2 5 7 5 2 1 1 1 4 9 14 16 16 17 20 23 23 22 22 21 19 18 19 20 20 20 21 23 23 23 22 22 22 23 23 23 23 22 21 20 19 16 15 14 12
30 29 28 27 27 26 25 24 22 21 20 19 19 19 19 20 19 19 19 19 20 21 21 21 21 21 20 19 18 16 15 13 12 11 9 6 4 2 1 3 2 5 7 5 2 1 1 1 6 11 13 14 15 17 20 22 22 22 21 20 17 16 18 19 18 19 20 22 23 22 21 21 21 22 22 22 22 21 20 19 18 16 14 13 11
27 28 27 26 25 24 23 22 21 20 20 20 20 20 20 21 20 20 20 20 20 20 21 21 21 21 19 18 16 15 14 14 12 10 8 5 2 0 4 4 1 6 7 4 2 2 1 3 7 10 11 12 15 18 20 21 21 21 21 19 16 15 17 18 18 18 20 22 22 22 22 21 21 21 21 20 20 20 19 18 16 15 13 12 10
25 25 25 25 24 24 23 23 23 23 22 23 23 23 23 23 22 22 21 21 20 20 20 20 20 19 18 16 15 15 14 13 11 9 6 4 1 2 4 2 3 6 5 3 3 3 1 3 6 8 9 12 15 18 19 20 20 21 20 18 16 15 16 18 19 19 20 21 22 22 22 22 22 22 21 21 20 20 18 17 16 14 12 11 10
24 24 24 24 24 24 23 23 23 23 23 24 24 24 24 24 23 22 22 21 21 20 19 19 19 18 17 16 15 14 12 11 10 7 6 3 0 3 3 1 2 4 4 5 5 3 1 3 5 7 9 12 15 17 18 19 20 20 19 18 16 15 15 17 19 19 20 21 22 22 22 22 22 23 23 22 21 19 18 17 16 14 12 11 9
Wind_Direction
191 195 205 216 211 201 199 198 194 194 194 194 199 204 206 203 199 194 189 185 181 176 174 173 169 167 166 167 168 171 173 174 178 184 188 193 198 200 205 210 218 221 216 221 231 212 183 179 166 67 20 358 358 334 329 347 351 353 353 344 342 341 334 331 318 306 316 327 331 333 338 339 340 345 347 346 348 349 350 351 351 351 350 349 348
192 197 207 213 207 199 197 198 196 195 195 196 198 203 207 207 203 199 194 190 187 183 180 177 173 169 168 168 169 172 176 179 182 188 194 201 208 211 214 222 226 226 226 231 240 237 231 235 236 239 261 293 330 318 305 330 350 352 357 357 354 353 350 348 343 324 320 325 328 331 336 339 341 344 346 346 346 345 345 346 347 345 345 347 346
196 203 208 206 200 195 193 195 197 198 198 198 199 202 206 208 205 202 198 195 192 189 185 181 177 173 171 171 173 174 178 183 187 192 199 206 212 216 220 225 230 232 231 233 239 243 244 249 252 253 255 256 284 309 299 306 333 338 340 345 350 351 353 352 349 340 328 325 328 331 334 337 339 341 342 341 342 344 344 344 344 344 346 349 349
203 209 208 199 193 191 193 194 195 196 198 200 201 204 206 207 206 203 200 197 195 193 190 186 183 180 179 178 180 183 186 190 195 200 206 214 218 222 225 228 231 233 235 235 235 239 242 244 247 253 258 256 266 290 293 296 314 320 320 320 324 327 329 332 337 340 336 329 328 330 333 334 334 336 337 335 337 340 340 340 341 342 345 349 351
196 198 204 194 187 185 185 186 187 189 193 191 192 203 204 203 203 202 200 198 196 194 192 190 188 186 186 187 190 193 196 199 203 208 213 220 226 229 231 233 235 235 237 237 235 236 238 242 245 246 249 252 259 275 280 281 296 300 301 305 310 317 321 325 329 332 333 333 330 328 329 330 330 332 337 338 338 336 333 332 335 338 337 338 343
174 154 107 53 106 152 163 170 178 184 184 172 149 114 183 193 197 198 197 196 195 195 194 194 194 193 193 195 198 202 206 210 213 217 220 223 228 233 235 237 240 239 239 239 237 235 234 237 241 238 237 240 242 254 261 262 274 282 288 299 308 314 320 323 325 327 329 332 332 330 331 335 335 335 339 343 343 341 338 332 329 332 335 333 334
162 151 141 106 85 114 150 161 157 154 158 159 154 143 143 166 187 193 191 187 185 185 188 192 195 196 197 199 202 204 206 210 216 222 225 227 229 233 237 241 242 241 240 241 239 237 234 234 234 229 227 229 229 233 241 248 259 271 282 295 304 311 317 319 321 325 329 334 337 337 336 339 342 341 342 344 343 345 349 344 335 333 335 334 334
151 142 140 140 124 102 106 125 128 128 131 132 134 139 146 158 177 187 184 181 181 180 185 194 197 198 202 205 204 203 206 217 231 233 230 231 234 237 241 244 244 242 241 241 240 237 234 233 231 224 220 220 221 226 233 241 252 263 275 286 297 307 313 316 320 326 332 337 341 343 341 340 342 343 343 347 346 343 347 347 339 335 335 333 333
153 149 152 151 134 106 94 106 112 121 134 139 151 174 179 178 180 182 181 180 188 200 212 215 210 209 214 214 212 217 229 243 249 243 241 247 251 251 250 250 248 246 243 240 239 237 233 232 228 221 217 216 219 227 234 242 252 258 265 279 295 306 310 312 321 331 337 339 341 342 340 338 340 340 339 342 342 336 335 336 335 335 335 331 330
165 166 165 155 145 152 173 170 163 188 189 187 196 199 193 187 181 182 185 188 200 220 231 230 224 224 230 232 233 241 253 259 258 256 261 267 267 263 259 257 252 248 244 239 236 233 230 228 223 216 216 218 222 229 235 243 252 255 261 278 293 301 302 304 316 329 334 333 333 334 332 328 330 334 332 332 333 330 329 332 331 331 334 332 329
157 161 161 154 156 175 190 194 203 213 204 190 188 184 182 185 187 193 203 208 216 225 231 233 232 235 241 246 250 256 263 266 267 270 272 272 270 267 266 266 260 251 244 239 234 228 224 222 218 216 218 222 225 231 236 242 249 254 265 280 289 291 290 289 295 306 312 312 314 318 317 315 321 327 328 329 331 328 325 327 328 328 332 332 324
138 143 143 139 144 159 172 180 188 190 181 174 176 178 181 188 192 196 203 213 221 225 230 235 240 245 253 262 269 273 274 274 274 275 277 275 272 270 268 267 263 255 246 237 229 224 221 219 216 216 218 223 229 234 238 243 248 257 269 279 283 284 285 283 283 287 291 294 298 303 306 308 315 323 327 328 327 323 322 323 323 324 323 319 310
136 141 144 144 147 152 158 163 167 168 167 165 167 169 170 169 172 181 192 208 223 229 234 243 251 256 264 271 277 280 279 280 282 286 291 293 288 281 274 268 263 257 246 233 225 223 222 218 213 210 213 223 235 241 243 245 250 257 267 274 276 278 279 280 281 282 285 289 291 298 306 310 312 317 322 324 320 318 319 319 319 320 316 311 307
145 147 152 155 156 159 161 161 160 158 157 156 156 156 155 151 152 159 171 189 212 224 230 244 253 254 257 261 264 268 274 283 295 305 307 305 300 293 284 274 262 252 242 232 226 223 220 216 212 209 214 227 239 242 244 246 253 260 266 269 271 273 273 274 277 280 286 292 294 299 307 308 307 308 310 312 313 314 316 316 317 317 313 308 306
162 155 158 155 150 154 157 156 154 155 155 154 155 154 154 152 149 153 158 160 179 214 226 265 285 252 235 231 234 246 262 283 305 317 319 316 310 298 278 260 248 240 234 230 225 219 215 215 215 215 223 233 237 241 246 251 257 262 265 266 268 269 268 267 270 274 281 287 289 293 298 298 299 301 302 303 305 306 307 308 308 308 307 306 305
194 164 161 158 152 155 158 155 152 155 158 160 160 158 160 168 170 178 193 195 211 246 265 282 294 282 240 228 234 247 267 293 311 324 333 338 333 308 265 243 235 230 224 219 213 208 207 212 216 218 223 226 230 238 246 252 256 258 261 262 262 259 256 256 260 265 270 275 279 284 289 292 295 297 299 300 302 304 305 304 303 304 305 305 302
227 205 187 179 169 164 165 164 159 157 158 160 164 167 169 182 203 217 227 231 243 263 268 263 266 268 254 239 241 250 262 280 302 320 334 340 335 295 234 217 207 199 191 184 183 184 185 187 197 210 217 221 229 241 249 250 249 249 251 252 249 245 244 250 258 265 269 273 277 282 286 290 292 294 297 298 299 303 306 305 306 307 305 301 297
240 223 216 211 198 187 183 178 171 169 169 168 171 178 189 203 221 231 238 255 278 292 293 278 260 255 252 243 239 244 247 255 280 304 318 318 289 222 196 186 178 174 173 170 171 179 185 192 208 224 231 234 244 257 260 254 244 239 238 240 244 252 262 271 277 281 283 284 285 286 288 291 293 295 298 300 299 302 304 305 308 308 302 295 294
55 70 46 352 202 193 192 191 188 182 179 179 181 191 207 217 224 230 238 261 287 303 312 304 272 249 243 241 240 240 237 234 240 256 257 244 229 214 198 187 178 176 183 188 191 200 209 215 224 234 241 246 254 260 258 249 241 238 246 260 276 289 296 300 302 301 300 300 300 300 300 301 304 306 309 312 313 314 312 309 309 305 298 293 294
22 22 19 22 82 163 183 193 195 192 188 189 193 201 214 223 226 229 238 255 277 297 312 309 272 246 235 233 235 236 231 223 214 215 222 220 216 212 205 197 189 183 188 196 200 204 208 213 220 228 236 241 245 247 246 246 253 265 282 293 303 308 310 312 314 315 317 317 317 317 316 315 315 314 314 315 317 320 317 311 308 303 298 294 292
308 306 304 305 92 93 65 140 181 188 194 205 215 220 223 225 229 233 238 247 263 289 306 296 258 241 231 225 223 221 219 216 209 206 213 216 216 216 211 205 200 194 190 189 190 191 190 193 198 200 205 210 216 236 266 290 296 299 304 309 315 320 321 322 325 326 325 324 323 321 319 317 315 312 309 306 307 312 313 308 304 301 298 294 290
285 283 271 260 256 268 288 273 150 141 137 209 256 248 235 229 232 237 241 248 259 274 283 270 245 232 224 217 214 209 205 206 206 207 212 216 218 219 215 206 202 202 198 187 180 179 174 172 175 175 183 211 259 293 301 303 305 307 311 317 324 327 327 327 328 326 324 323 321 319 319 318 316 313 309 304 302 306 308 306 302 299 296 294 292
262 261 263 269 274 270 259 250 239 248 287 305 310 303 279 253 248 251 253 258 262 256 249 243 230 220 214 208 207 206 201 199 203 211 216 216 213 211 208 200 195 201 205 197 183 175 170 170 180 195 222 263 291 303 304 302 301 306 314 321 323 322 320 322 323 321 319 318 315 315 316 317 315 312 309 307 304 305 306 305 303 298 294 293 293
257 257 260 256 251 248 247 255 266 273 281 284 281 283 285 275 261 253 250 250 247 239 232 226 215 208 206 204 201 201 199 195 198 207 210 208 205 202 200 197 195 202 207 198 179 168 171 180 198 226 264 290 300 305 305 297 288 293 304 309 313 314 314 318 318 316 313 311 310 310 312 313 312 309 308 307 306 304 303 301 299 297 294 292 291
251 254 259 256 250 248 246 250 260 264 263 263 262 267 278 281 273 258 245 237 233 229 226 219 210 203 202 203 201 200 198 193 192 195 196 196 197 195 192 191 193 195 196 186 169 159 163 183 247 290 300 303 305 306 303 290 280 286 293 300 313 319 319 319 317 313 309 308 309 309 309 311 311 309 308 307 303 301 299 298 297 295 294 293 291
251 252 256 260 260 255 247 247 252 252 246 247 252 259 267 272 277 274 256 238 231 228 222 212 203 198 198 201 200 196 193 193 195 193 187 186 188 184 178 174 174 177 178 171 160 146 134 310 312 312 312 320 332 337 337 330 318 314 315 319 324 327 326 324 321 317 313 313 313 312 311 312 311 309 307 305 301 299 298 297 295 294 293 293 291
262 254 251 255 256 250 245 244 244 241 239 241 245 251 255 257 260 264 255 236 225 219 211 201 195 193 196 197 195 192 192 194 195 192 186 183 182 177 173 173 175 181 186 186 206 267 291 307 347 75 85 59 37 22 12 1 349 339 332 329 328 328 328 326 323 321 321 321 319 316 314 312 309 306 304 302 299 300 300 298 294 292 293 293 289
285 273 259 251 247 244 244 243 241 240 237 232 233 238 242 244 247 250 248 237 223 211 202 200 205 208 206 199 191 187 189 193 194 191 187 183 178 174 177 188 200 209 230 264 277 266 225 131 110 99 71 35 18 8 0 352 344 337 333 330 329 327 326 324 322 322 323 323 320 316 313 310 306 303 302 299 298 299 301 300 295 292 293 292 287
280 279 273 258 245 244 245 248 247 241 232 223 221 226 229 233 240 243 242 237 228 219 214 216 220 220 214 205 195 189 189 190 189 188 185 181 180 184 192 205 215 223 262 169 152 142 127 106 73 42 23 10 3 358 353 348 342 338 335 333 331 329 327 325 325 325 325 322 318 313 310 307 304 302 300 297 295 296 298 297 294 293 291 287 282
270 269 267 261 254 247 244 244 242 235 228 220 215 215 218 222 226 225 220 218 219 222 226 232 233 227 216 205 203 205 201 189 180 180 182 181 184 190 192 193 188 164 139 138 135 116 90 62 38 24 17 10 4 1 357 351 345 341 337 335 332 330 328 328 328 327 324 320 315 311 308 305 302 300 298 294 293 294 293 292 291 290 287 282 279
264 261 256 254 252 249 251 250 239 227 220 215 210 205 201 201 204 206 207 209 213 219 225 230 233 229 218 205 198 198 193 181 175 177 181 180 177 173 165 158 146 132 128 135 119 83 57 40 29 20 13 8 5 0 356 351 347 343 339 335 332 330 329 328 327 324 320 316 312 309 306 304 301 299 297 295 293 293 292 291 290 286 282 279 277
262 262 260 256 251 248 249 247 231 214 202 197 197 195 188 181 182 190 198 204 209 214 218 219 217 216 217 212 197 181 174 173 174 175 172 166 160 152 144 138 130 122 118 116 94 67 43 29 22 15 8 6 4 360 355 351 347 343 339 334 329 328 326 325 324 321 317 314 311 308 306 303 301 299 298 296 294 292 291 289 287 283 280 278 275
258 259 259 258 254 245 235 226 215 203 193 188 188 188 187 182 176 168 169 181 192 197 201 204 203 200 203 205 195 178 170 169 169 165 160 154 147 140 133 129 124 116 101 87 77 59 37 24 19 14 9 6 2 355 351 348 344 341 338 332 328 326 325 325 324 322 320 317 313 309 306 303 301 298 296 294 292 290 288 287 284 282 279 276 274
256 253 251 250 248 243 233 223 215 208 201 195 191 190 192 190 182 170 162 161 164 167 169 176 186 191 189 185 178 169 163 160 158 155 151 146 141 137 134 131 124 107 88 81 70 52 37 28 22 15 9 3 357 352 349 347 344 341 338 335 333 330 328 327 325 324 321 318 313 308 305 303 300 297 294 292 291 288 285 284 282 280 277 275 273
253 250 246 244 242 241 236 227 216 205 198 195 194 193 192 188 182 177 172 164 154 147 147 155 165 172 171 167 162 158 154 151 149 146 144 142 142 142 142 141 134 115 103 90 67 52 44 35 23 14 6 1 357 354 349 346 345 344 341 337 333 330 328 326 324 321 317 313 310 308 306 303 301 298 294 292 289 287 285 283 281 279 276 275 273
248 245 242 239 237 235 233 227 214 203 197 195 194 192 189 185 180 177 172 164 153 144 140 141 145 149 152 153 150 148 145 143 143 142 140 139 139 138 137 136 133 128 117 96 72 60 47 29 18 10 5 0 355 351 347 346 345 341 336 331 327 324 323 321 318 315 313 311 310 309 308 305 303 301 297 293 290 288 286 284 282 280 276 274 273
242 239 236 233 231 228 228 226 218 207 200 195 191 187 183 180 176 170 163 157 150 144 140 140 141 141 142 143 143 141 140 141 141 139 136 135 135 134 130 127 127 126 116 97 74 49 30 20 13 7 1 356 353 351 349 346 339 332 327 324 322 319 317 316 314 314 313 313 312 312 310 308 306 304 300 295 292 290 288 285 283 281 278 275 274
237 234 231 227 225 223 221 219 214 205 196 191 187 183 176 170 167 163 158 153 148 145 143 143 143 142 142 142 143 142 142 142 142 138 134 133 136 138 134 131 133 127 110 89 61 36 30 21 10 4 1 0 2 359 348 338 330 325 323 322 320 318 316 315 316 317 317 315 314 314 312 310 309 308 304 298 294 293 291 288 285 282 280 278 273
232 228 225 221 218 217 215 210 203 195 187 182 179 174 166 161 158 156 153 150 147 146 145 146 147 147 146 146 148 148 147 147 146 143 138 137 142 146 146 147 146 132 105 92 79 51 36 20 10 10 14 17 10 354 338 329 326 325 324 322 320 318 318 318 317 318 318 317 316 315 314 314 313 312 308 302 298 296 294 292 288 284 281 279 275
224 218 217 213 209 209 207 200 192 186 181 177 173 167 162 160 157 154 151 149 147 148 150 152 153 153 152 153 155 155 154 154 156 157 156 153 152 153 157 159 153 137 118 113 102 63 31 18 18 25 27 15 356 340 331 329 329 328 327 325 322 320 319 319 318 318 318 319 319 319 319 319 318 316 313 309 307 304 301 297 294 291 287 284 282
210 204 204 202 200 199 196 190 185 180 176 172 166 161 159 157 154 150 148 148 149 152 156 157 156 156 157 158 159 160 159 161 165 168 165 161 158 159 162 162 153 138 130 124 104 55 25 23 27 27 15 357 343 335 335 335 334 332 331 329 326 323 321 320 320 320 321 322 322 322 323 323 321 319 317 316 315 313 309 305 302 298 294 291 288
181 180 181 182 184 182 177 172 169 167 164 160 156 154 153 151 147 146 148 151 153 155 155 154 156 159 161 161 163 166 165 164 164 162 159 159 161 163 163 161 153 144 143 134 96 39 32 40 34 14 356 345 341 341 342 340 337 335 334 332 329 326 323 322 324 326 327 326 326 326 327 326 325 324 324 323 322 319 315 312 309 305 301 298 296
144 149 153 158 161 159 156 154 153 151 150 148 148 147 146 144 144 148 152 154 155 154 151 152 157 162 163 167 177 182 174 164 162 161 161 162 164 163 163 162 158 158 160 146 75 34 46 56 34 358 345 344 345 346 344 341 340 339 337 335 332 330 327 326 328 331 332 331 330 330 330 330 330 330 330 330 328 326 323 320 317 314 311 308 305
116 120 124 129 132 134 135 136 135 134 134 136 138 140 142 144 148 153 154 153 153 154 155 158 163 166 170 178 187 183 171 166 165 164 162 162 163 163 164 163 166 187 194 182 104 36 58 68 22 345 343 346 348 347 344 343 345 345 343 339 336 334 333 333 334 336 337 335 333 333 333 334 335 336 335 335 335 332 330 328 325 321 319 316 314
101 105 108 110 112 115 118 122 125 127 131 134 137 142 147 149 150 150 149 150 153 160 166 169 172 174 176 175 171 165 163 164 164 161 161 164 165 164 162 160 200 224 211 200 221 20 60 65 351 338 345 348 349 348 345 345 349 351 348 343 340 337 337 337 338 341 343 341 338 337 337 338 340 340 340 340 340 338 336 333 329 326 324 323 320
94 97 100 103 107 110 115 120 125 129 133 136 138 141 146 147 146 145 148 154 161 166 169 170 170 168 165 161 158 157 159 161 161 161 163 165 163 164 170 199 252 224 210 205 227 14 82 47 339 343 350 351 349 349 348 348 351 353 350 345 341 339 340 342 343 345 348 348 346 344 342 342 344 346 345 346 346 344 341 339 337 334 333 329 325
94 97 101 104 108 112 117 122 125 127 129 132 134 138 142 146 148 151 155 159 160 159 159 159 159 158 156 155 155 156 156 158 160 160 159 159 160 169 203 293 266 215 206 210 225 221 144 4 348 354 354 350 347 349 349 350 353 355 352 348 344 344 348 349 347 347 350 352 352 351 349 348 349 351 351 352 351 348 346 345 345 345 344 340 339
98 100 104 108 110 112 115 118 121 122 125 129 133 138 142 145 147 149 150 150 150 149 150 150 151 151 150 150 152 155 156 158 159 156 155 156 160 175 300 318 269 208 203 211 228 212 184 2 359 357 352 346 346 349 350 352 355 356 354 352 351 353 356 355 350 349 352 355 357 358 357 357 356 356 356 356 355 353 351 350 351 352 352 350 352
102 104 107 109 111 113 116 119 121 123 127 129 131 132 134 136 136 137 138 140 140 141 143 144 144 145 144 145 148 152 153 152 151 150 147 145 147 284 330 334 229 190 200 219 222 187 156 7 357 351 345 344 347 350 352 355 358 358 357 356 356 358 1 359 355 353 354 357 359 2 4 5 5 4 2 1 360 358 357 355 355 356 358 359 2
106 109 111 112 113 115 119 121 120 121 124 125 125 124 125 126 126 128 130 133 134 136 138 140 141 141 141 141 142 145 146 145 144 143 141 137 150 315 333 352 165 183 197 194 152 136 96 360 347 340 339 345 350 352 354 358 0 0 360 359 358 358 1 3 1 360 358 359 1 5 8 11 13 12 9 6 4 3 3 2 360 359 1 4 7
108 110 112 113 115 117 119 119 118 118 120 121 121 121 122 122 122 124 127 129 130 132 135 137 138 137 137 136 137 139 141 139 137 137 141 147 231 324 336 348 167 162 134 114 112 113 60 330 327 329 337 347 352 353 356 1 3 3 3 3 1 1 4 5 5 5 4 2 3 7 11 14 17 18 16 14 11 8 8 8 7 6 6 7 7